Location: Tuckahoe State Park
(38.9833°N, 75.9333°W)
Time: 13:39:52
(UTC-04:00)

N. Korean satellite - Visible Passes

Search period start: 19 October 2019 00:00
Search period end: 29 October 2019 00:00
Orbit: 455 x 508 km, 97.2° (Epoch: 19 October)

Date Brightness Start Highest point End Pass type
(mag) Time Alt. Az. Time Alt. Az. Time Alt. Az.
19 Oct 10.1 06:00:37 10° ENE 06:02:37 14° E 06:04:37 10° SE visible
20 Oct 10.2 19:16:57 10° WSW 19:18:26 12° W 19:19:55 10° WNW visible
21 Oct 7.7 06:42:02 10° NNE 06:45:34 50° E 06:49:09 10° S visible
21 Oct 9.1 18:50:03 10° SSW 18:52:58 26° W 18:55:55 10° NW visible
22 Oct 9.4 06:17:13 10° NE 06:20:12 23° E 06:23:12 10° SSE visible
23 Oct 10.4 05:53:27 10° ENE 05:54:44 11° E 05:56:01 10° ESE visible
24 Oct 10.0 19:08:23 10° SW 19:10:31 16° W 19:12:40 10° NW visible
25 Oct 8.3 06:34:15 10° NNE 06:37:44 40° E 06:41:13 10° S visible
25 Oct 8.6 18:41:56 10° SSW 18:45:04 33° W 18:48:14 10° NNW visible
26 Oct 9.7 06:09:37 10° NE 06:12:19 19° E 06:15:01 10° SE visible
28 Oct 7.0 06:51:30 10° NNE 06:55:11 71° E 06:58:53 10° S visible
28 Oct 9.6 18:59:59 10° SW 19:02:33 20° W 19:05:10 10° NW visible
